TBA9851 ZULS-ZGHA

Flight info

Callsign TBA9851
Flight time N/A
Altitude 35100
Route DEP10R DUMIX W9 DCH/K0841S1130 W9 KDJ V69 WFX B213 TOSIM V38 ENH W139 DYG W138 RUKLI RUK2W
Aircraft A319/M-SDE3FGHIRWY/LB1

Departure

Time 2026-04-27 12:17
Airport Lhasa Gonggar International Airport (ZULS)

Arrival

Time N/A
Airport Changsha Huanghua International Airport (ZGHA)
Time Latitude Longitude Altitude Speed Heading
2026-04-27 11:37 29.29369 90.89666 11503 ft 0 kts 181°
2026-04-27 12:03 29.29378 90.89666 11499 ft 4 kts 180°
2026-04-27 12:04 29.29390 90.89666 11507 ft 0 kts 180°
2026-04-27 12:06 29.29392 90.89666 11510 ft 2 kts 180°
2026-04-27 12:06 29.29418 90.89666 11508 ft 4 kts 185°
2026-04-27 12:06 29.29442 90.89674 11508 ft 4 kts 226°
2026-04-27 12:06 29.29452 90.89691 11501 ft 4 kts 270°
2026-04-27 12:07 29.29452 90.89701 11503 ft 0 kts 269°
2026-04-27 12:08 29.29452 90.89698 11515 ft 2 kts 269°
2026-04-27 12:08 29.29451 90.89644 11516 ft 11 kts 269°
2026-04-27 12:09 29.29450 90.89554 11515 ft 11 kts 269°
2026-04-27 12:09 29.29448 90.89461 11506 ft 12 kts 268°
2026-04-27 12:09 29.29446 90.89356 11515 ft 16 kts 269°
2026-04-27 12:09 29.29455 90.89232 11512 ft 15 kts 304°
2026-04-27 12:10 29.29549 90.89195 11507 ft 14 kts
2026-04-27 12:10 29.29650 90.89196 11509 ft 15 kts
2026-04-27 12:10 29.29766 90.89195 11502 ft 17 kts 359°
2026-04-27 12:10 29.29879 90.89194 11512 ft 16 kts 359°
2026-04-27 12:11 29.29962 90.89230 11507 ft 12 kts 87°
2026-04-27 12:11 29.29966 90.89336 11518 ft 18 kts 89°
2026-04-27 12:11 29.29969 90.89519 11517 ft 24 kts 89°
2026-04-27 12:11 29.29972 90.89708 11517 ft 25 kts 89°
2026-04-27 12:12 29.29975 90.89933 11514 ft 30 kts 88°
2026-04-27 12:12 29.29978 90.90166 11519 ft 29 kts 89°
2026-04-27 12:12 29.29982 90.90391 11519 ft 28 kts 88°
2026-04-27 12:12 29.29985 90.90612 11518 ft 28 kts 89°
2026-04-27 12:13 29.29990 90.90858 11515 ft 35 kts 89°
2026-04-27 12:13 29.29993 90.91142 11514 ft 35 kts 89°
2026-04-27 12:13 29.29997 90.91422 11514 ft 34 kts 88°
2026-04-27 12:13 29.30003 90.91687 11502 ft 33 kts 89°
2026-04-27 12:14 29.30005 90.91950 11506 ft 32 kts 89°
2026-04-27 12:14 29.30009 90.92204 11506 ft 31 kts 89°
2026-04-27 12:14 29.30013 90.92450 11506 ft 31 kts 89°
2026-04-27 12:14 29.30016 90.92690 11506 ft 30 kts 89°
2026-04-27 12:15 29.30026 90.92877 11499 ft 16 kts 67°
2026-04-27 12:15 29.30088 90.92905 11502 ft 14 kts 358°
2026-04-27 12:15 29.30175 90.92828 11505 ft 13 kts 279°
2026-04-27 12:15 29.30174 90.92766 11506 ft 9 kts 269°
2026-04-27 12:16 29.30169 90.92497 11507 ft 64 kts 269°
2026-04-27 12:16 29.30164 90.91766 11501 ft 117 kts 270°
2026-04-27 12:16 29.30164 90.90658 11513 ft 158 kts 269°
2026-04-27 12:16 29.30147 90.89762 11516 ft 181 kts 269°
2026-04-27 12:17 29.30109 90.88252 11799 ft 191 kts 272°
2026-04-27 12:17 29.30060 90.86865 12283 ft 192 kts 272°
2026-04-27 12:17 29.29961 90.85394 12789 ft 194 kts 259°
2026-04-27 12:17 29.29404 90.83428 13216 ft 196 kts 246°
2026-04-27 12:18 29.29008 90.82495 13308 ft 199 kts 249°
2026-04-27 12:18 29.28707 90.80934 13400 ft 205 kts 270°
2026-04-27 12:18 29.28870 90.79296 13497 ft 210 kts 289°
2026-04-27 12:18 29.29497 90.77759 13593 ft 218 kts 308°
2026-04-27 12:19 29.30585 90.76487 13689 ft 231 kts 327°
2026-04-27 12:19 29.32088 90.75681 13823 ft 247 kts 347°
2026-04-27 12:19 29.33816 90.75564 14280 ft 252 kts
2026-04-27 12:19 29.35480 90.76203 15005 ft 255 kts 31°
2026-04-27 12:20 29.36796 90.77538 15477 ft 255 kts 51°
2026-04-27 12:20 29.37581 90.79354 16135 ft 259 kts 73°
2026-04-27 12:20 29.37735 90.80631 16495 ft 264 kts 87°
2026-04-27 12:20 29.37592 90.81984 16839 ft 270 kts 101°
2026-04-27 12:21 29.37159 90.84049 17381 ft 271 kts 94°
2026-04-27 12:21 29.37035 90.86204 17917 ft 269 kts 80°
2026-04-27 12:21 29.37512 90.88235 18390 ft 263 kts 57°
2026-04-27 12:21 29.38577 90.89876 18840 ft 259 kts 38°
2026-04-27 12:22 29.40079 90.90993 19304 ft 258 kts 21°
2026-04-27 12:22 29.41778 90.91840 19475 ft 275 kts 21°
2026-04-27 12:22 29.43598 90.92746 19598 ft 295 kts 21°
2026-04-27 12:22 29.45539 90.93717 19717 ft 313 kts 21°
2026-04-27 12:23 29.47594 90.94751 19836 ft 331 kts 21°
2026-04-27 12:23 29.49756 90.95844 19978 ft 348 kts 21°
2026-04-27 12:23 29.52028 90.96995 20091 ft 364 kts 22°
2026-04-27 12:23 29.54393 90.98197 20212 ft 380 kts 22°
2026-04-27 12:24 29.56857 90.99448 20339 ft 394 kts 22°
2026-04-27 12:24 29.59288 91.01007 20649 ft 405 kts 32°
2026-04-27 12:24 29.61465 91.03109 21076 ft 413 kts 43°
2026-04-27 12:24 29.63257 91.05710 21534 ft 420 kts 55°
2026-04-27 12:25 29.64577 91.08731 21967 ft 427 kts 66°
2026-04-27 12:25 29.65357 91.12055 22425 ft 435 kts 78°
2026-04-27 12:25 29.65535 91.15552 22866 ft 443 kts 89°
2026-04-27 12:25 29.65387 91.19108 23242 ft 446 kts 87°
2026-04-27 12:26 29.65497 91.22681 23602 ft 447 kts 81°
2026-04-27 12:26 29.65896 91.26227 23944 ft 448 kts 76°
2026-04-27 12:26 29.66579 91.29729 24293 ft 448 kts 71°
2026-04-27 12:26 29.67496 91.33154 24634 ft 450 kts 69°
2026-04-27 12:27 29.68634 91.36500 24982 ft 449 kts 61°
2026-04-27 12:27 29.70186 91.39612 25321 ft 448 kts 50°
2026-04-27 12:27 29.72323 91.42178 25663 ft 443 kts 33°
2026-04-27 12:27 29.74911 91.44009 25989 ft 443 kts 27°
2026-04-27 12:28 29.77476 91.46022 26301 ft 450 kts 36°
2026-04-27 12:28 29.79696 91.48603 26614 ft 459 kts 50°
2026-04-27 12:28 29.81275 91.51817 26922 ft 468 kts 66°
2026-04-27 12:28 29.82042 91.55484 27254 ft 475 kts 81°
2026-04-27 12:29 29.82425 91.59273 27597 ft 477 kts 81°
2026-04-27 12:29 29.82841 91.63080 27917 ft 480 kts 80°
2026-04-27 12:29 29.83292 91.66899 28228 ft 482 kts 80°
2026-04-27 12:29 29.83660 91.70741 28535 ft 486 kts 87°
2026-04-27 12:30 29.83415 91.74641 28835 ft 492 kts 99°
2026-04-27 12:30 29.82456 91.78432 29136 ft 495 kts 112°
2026-04-27 12:30 29.80899 91.81970 29557 ft 495 kts 118°
2026-04-27 12:30 29.79259 91.85455 30022 ft 494 kts 118°
2026-04-27 12:31 29.77626 91.88933 30418 ft 493 kts 118°
2026-04-27 12:31 29.76001 91.92401 30834 ft 491 kts 119°
2026-04-27 12:31 29.74387 91.95847 31317 ft 487 kts 119°
2026-04-27 12:31 29.72780 91.99277 31784 ft 485 kts 119°
2026-04-27 12:32 29.71363 92.02782 32225 ft 484 kts 110°
2026-04-27 12:32 29.70519 92.06516 32638 ft 483 kts 99°
2026-04-27 12:32 29.70297 92.10367 33046 ft 482 kts 88°
2026-04-27 12:32 29.70549 92.14210 33450 ft 481 kts 88°
2026-04-27 12:33 29.70544 92.18048 33847 ft 479 kts 95°
2026-04-27 12:33 29.70128 92.21843 34198 ft 477 kts 102°
2026-04-27 12:33 29.69394 92.25549 34537 ft 476 kts 105°
2026-04-27 12:33 29.68608 92.29245 34856 ft 474 kts 108°
2026-04-27 12:34 29.67291 92.32685 35051 ft 468 kts 126°
2026-04-27 12:34 29.65256 92.35567 35096 ft 461 kts 140°
2026-04-27 12:34 29.62700 92.37742 35092 ft 455 kts 154°
2026-04-27 12:35 29.57179 92.41286 35074 ft 459 kts 144°
2026-04-27 12:35 29.54849 92.43815 35077 ft 464 kts 133°
2026-04-27 12:35 29.53030 92.46897 35085 ft 469 kts 120°
2026-04-27 12:35 29.51847 92.50390 35080 ft 473 kts 106°
2026-04-27 12:36 29.51202 92.54107 35070 ft 477 kts 102°
2026-04-27 12:36 29.50012 92.61611 35095 ft 479 kts 102°
2026-04-27 12:37 29.48796 92.69136 35096 ft 479 kts 102°
2026-04-27 12:37 29.47570 92.76636 35099 ft 477 kts 102°
2026-04-27 12:38 29.46341 92.84115 35100 ft 476 kts 102°
2026-04-27 12:38 29.45117 92.91573 35080 ft 476 kts 101°
2026-04-27 12:39 29.44962 92.99137 35070 ft 477 kts 82°
2026-04-27 12:39 29.45714 93.02847 35066 ft 477 kts 71°
2026-04-27 12:39 29.46980 93.06357 35061 ft 477 kts 62°
2026-04-27 12:40 29.50223 93.12975 35073 ft 475 kts 60°
2026-04-27 12:40 29.53456 93.19604 35063 ft 476 kts 61°
2026-04-27 12:41 29.56685 93.26230 35043 ft 475 kts 61°
2026-04-27 12:41 29.59912 93.32855 35052 ft 475 kts 61°
2026-04-27 12:42 29.63141 93.39484 35048 ft 475 kts 61°
2026-04-27 12:42 29.64327 93.41915 35045 ft 0 kts 61°
2026-04-27 12:44 29.64338 93.41904 35051 ft 0 kts 63°
2026-04-27 12:45 29.64874 93.42160 35051 ft 0 kts 68°
2026-04-27 12:49 29.64238 93.40320 35053 ft 0 kts 68°
2026-04-27 12:49 29.65036 93.39955 35053 ft 0 kts 68°